User: anonymous   Login
Location: Unspecified
(0.0000°N, 0.0000°E)
Time: 12:33:39
(UTC+00:00)
Language:

Max Valier Satellite - Orbit

View from above orbital plane
View from above orbital plane
View from above satellite
View from above satellite

Ground track
Ground track

The orbit data is extracted from the following two-line orbital elements,

1 42778U 17036P   18020.76291182  .00000989  00000-0  47688-4 0  9995
2 42778  97.4246  82.7880 0011782 220.3653 139.6709 15.20987020 32098
Epoch (UTC): 20 January 2018 18:18:35
Eccentricity: 0.0011782
inclination: 97.4246°
perigee height: 495 km
apogee height: 511 km
right ascension of ascending node: 82.7880°
argument of perigee: 220.3653°
revolutions per day: 15.20987020
mean anomaly at epoch: 139.6709°
orbit number at epoch: 3209

The dashed part of the orbit path shows where the satellite is in the earth's shadow,  

DLR